Date String (YYYY-MM-DD hh:mm:ss) UTC,Instrument flags,Ambient pressure (hPa),Sample flow (lpm),Bypass flow (lpm),Sample temperature (°C),Ambient temperature (°C),ASC tube jacket temperature (°C),LED temperature (°C),Box temperature (°C),Sample RH (%),Span deviation,Mass concentration (μg/m³),Mass concentration (μg/m³),Mass concentration (μg/m³)
DateTimeUTC,F1_M11,P_M11,Q1_M11,Q2_M11,T1_M11,T2_M11,T3_M11,T4_M11,T5_M11,U1_M11,ZSPAN_M11,X0_M11,X2_M11,X1_M11
2022-01-11 15:00:00,,0831.4,4.99,0.00,22.4,21.7,00.0,31.5,24.1,04.0,0000.0,0001.07,0000.18,0000.12
2022-01-11 15:01:00,,0831.4,5.00,0.00,22.4,21.7,00.0,31.5,24.1,03.5,0000.0,0000.49,0000.17,0000.12
2022-01-11 15:02:00,,0831.5,5.00,0.00,22.4,21.7,00.0,31.5,24.1,04.1,0000.0,0000.48,0000.17,0000.12
2022-01-11 15:03:00,,0831.5,4.99,0.00,22.4,21.6,00.0,31.5,24.1,04.3,0000.0,0000.43,0000.14,0000.11
2022-01-11 15:04:00,,0831.5,5.01,0.00,22.4,21.7,00.0,31.5,24.1,04.5,0000.0,0000.22,0000.13,0000.11
2022-01-11 15:05:00,,0831.6,4.99,0.00,22.4,21.6,00.0,31.5,24.1,05.1,0000.0,0000.17,0000.13,0000.11
2022-01-11 15:06:00,,0831.6,5.00,0.00,22.4,21.6,00.0,31.5,24.1,05.2,0000.0,0000.16,0000.13,0000.11
2022-01-11 15:07:00,,0831.5,5.00,0.00,22.4,21.6,00.0,31.5,24.1,05.5,0000.0,0000.17,0000.13,0000.11
2022-01-11 15:08:00,,0831.7,5.00,0.00,22.4,21.6,00.0,31.5,24.1,05.5,0000.0,0000.18,0000.13,0000.11
2022-01-11 15:09:00,,0831.7,5.00,0.00,22.4,21.7,00.0,31.5,24.2,06.0,0000.0,0000.19,0000.14,0000.12
2022-01-11 15:10:00,,0831.7,5.01,0.00,22.4,21.7,00.0,31.5,24.2,05.7,0000.0,0000.24,0000.17,0000.14
2022-01-11 15:11:00,,0831.7,5.00,0.00,22.4,21.7,00.0,31.5,24.2,05.5,0000.0,0000.29,0000.20,0000.16
2022-01-11 15:12:00,,0831.7,5.00,0.00,22.4,21.7,00.0,31.5,24.2,05.6,0000.0,0000.47,0000.29,0000.20
2022-01-11 15:13:00,,0831.7,5.00,0.00,22.4,21.7,00.0,31.5,24.1,05.4,0000.0,0000.57,0000.34,0000.22
2022-01-11 15:14:00,,0831.7,5.00,0.00,22.4,21.7,00.0,31.5,24.2,05.3,0000.0,0000.65,0000.39,0000.24
2022-01-11 15:15:00,,0831.7,5.00,0.00,22.4,21.7,00.0,31.5,24.1,05.1,0000.0,0000.66,0000.40,0000.25
2022-01-11 15:16:00,,0831.7,5.02,0.00,22.4,21.7,00.0,31.4,24.1,05.1,0000.0,0000.72,0000.43,0000.27
2022-01-11 15:17:00,,0831.7,5.00,0.00,22.4,21.7,00.0,31.4,24.1,05.3,0000.0,0000.75,0000.45,0000.28
2022-01-11 15:18:00,,0831.8,5.00,0.00,22.4,21.7,00.0,31.4,24.1,05.0,0000.0,0000.89,0000.49,0000.29
2022-01-11 15:19:00,,0831.7,5.00,0.00,22.4,21.7,00.0,31.4,24.2,04.8,0000.0,0000.96,0000.51,0000.30
2022-01-11 15:20:00,,0831.6,4.99,0.00,22.4,21.7,00.0,31.4,24.1,05.0,0000.0,0001.05,0000.55,0000.30
2022-01-11 15:21:00,,0831.7,4.99,0.00,22.4,21.7,00.0,31.4,24.1,04.4,0000.0,0001.05,0000.54,0000.28
2022-01-11 15:22:00,,0831.6,5.01,0.00,22.4,21.7,00.0,31.4,24.1,05.0,0000.0,0000.99,0000.51,0000.26
2022-01-11 15:23:00,,0831.6,4.99,0.00,22.4,21.7,00.0,31.4,24.1,04.1,0000.0,0000.81,0000.43,0000.23
2022-01-11 15:24:00,,0831.7,5.01,0.00,22.4,21.7,00.0,31.4,24.1,04.1,0000.0,0000.72,0000.38,0000.21
2022-01-11 15:25:00,,0831.6,4.99,0.00,22.4,21.6,00.0,31.4,24.1,04.1,0000.0,0000.68,0000.34,0000.19
2022-01-11 15:26:00,,0831.6,5.01,0.00,22.4,21.6,00.0,31.4,24.0,03.8,0000.0,0000.66,0000.33,0000.18
2022-01-11 15:27:00,,0831.6,5.00,0.00,22.4,21.6,00.0,31.4,23.9,03.9,0000.0,0000.61,0000.31,0000.17
2022-01-11 15:28:00,,0831.6,5.00,0.00,22.3,21.6,00.0,31.4,23.9,03.8,0000.0,0000.59,0000.29,0000.16
2022-01-11 15:29:00,,0831.6,4.99,0.00,22.3,21.6,00.0,31.4,23.9,04.0,0000.0,0000.46,0000.25,0000.15
2022-01-11 15:30:00,,0831.6,5.02,0.00,22.3,21.6,00.0,31.4,24.0,04.5,0000.0,0000.37,0000.22,0000.15
2022-01-11 15:31:00,,0831.6,5.00,0.00,22.3,21.6,00.0,31.4,23.9,04.5,0000.0,0000.29,0000.18,0000.14
2022-01-11 15:32:00,,0831.6,5.01,0.00,22.3,21.5,00.0,31.4,23.8,04.5,0000.0,0000.20,0000.15,0000.14
2022-01-11 15:33:00,,0831.7,5.00,0.00,22.3,21.7,00.0,31.4,24.0,04.4,0000.0,0000.19,0000.15,0000.13
2022-01-11 15:34:00,,0831.7,5.00,0.00,22.4,22.5,00.0,31.4,24.3,04.6,0000.0,0000.19,0000.14,0000.13
2022-01-11 15:35:00,,0831.7,5.00,0.00,22.6,23.3,00.0,31.5,24.6,04.6,0000.0,0000.18,0000.14,0000.13
2022-01-11 15:36:00,,0831.7,5.01,0.00,22.7,23.3,00.0,31.5,24.7,04.2,0000.0,0000.14,0000.13,0000.13
2022-01-11 15:37:00,,0831.7,5.00,0.00,22.7,23.1,00.0,31.6,24.7,04.2,0000.0,0000.16,0000.14,0000.13
2022-01-11 15:38:00,,0831.7,5.00,0.00,22.7,22.9,00.0,31.6,24.6,04.4,0000.0,0000.20,0000.15,0000.13
2022-01-11 15:39:00,,0831.7,5.01,0.00,22.7,22.7,00.0,31.6,24.5,04.3,0000.0,0000.20,0000.15,0000.13
2022-01-11 15:40:00,,0831.7,5.00,0.00,22.7,22.5,00.0,31.6,24.5,04.5,0000.0,0000.20,0000.15,0000.13
2022-01-11 15:41:00,,0831.7,5.00,0.00,22.7,22.4,00.0,31.6,24.5,04.3,0000.0,0000.19,0000.14,0000.13
2022-01-11 15:42:00,,0831.6,4.98,0.00,22.7,22.3,00.0,31.6,24.4,04.5,0000.0,0000.22,0000.16,0000.13
2022-01-11 15:43:00,,0831.6,5.01,0.00,22.7,22.2,00.0,31.6,24.4,04.9,0000.0,0000.23,0000.17,0000.13
2022-01-11 15:44:00,,0831.7,5.00,0.00,22.6,22.2,00.0,31.6,24.4,04.6,0000.0,0000.23,0000.17,0000.13
2022-01-11 15:45:00,,0831.7,5.00,0.00,22.6,22.1,00.0,31.6,24.4,04.6,0000.0,0000.24,0000.17,0000.13
2022-01-11 15:46:00,,0831.8,5.00,0.00,22.6,22.1,00.0,31.6,24.3,04.5,0000.0,0000.25,0000.17,0000.13
2022-01-11 15:47:00,,0831.7,5.00,0.00,22.6,22.0,00.0,31.6,24.3,04.6,0000.0,0000.28,0000.18,0000.13
2022-01-11 15:48:00,,0831.7,4.99,0.00,22.6,22.0,00.0,31.6,24.4,04.5,0000.0,0000.38,0000.20,0000.14
2022-01-11 15:49:00,,0831.7,5.01,0.00,22.6,22.0,00.0,31.6,24.3,04.4,0000.0,0000.34,0000.19,0000.13
2022-01-11 15:50:00,,0831.8,5.00,0.00,22.6,21.9,00.0,31.6,24.4,04.4,0000.0,0000.34,0000.19,0000.13
2022-01-11 15:51:00,,0831.8,4.99,0.00,22.6,21.9,00.0,31.6,24.4,03.9,0000.0,0000.35,0000.19,0000.14
2022-01-11 15:52:00,,0831.8,5.01,0.00,22.6,21.9,00.0,31.6,24.4,04.1,0000.0,0000.35,0000.19,0000.14
2022-01-11 15:53:00,,0831.8,5.00,0.00,22.6,21.9,00.0,31.6,24.4,04.1,0000.0,0000.34,0000.18,0000.14
2022-01-11 15:54:00,,0831.9,5.00,0.00,22.6,21.9,00.0,31.6,24.4,04.1,0000.0,0000.33,0000.17,0000.13
2022-01-11 15:55:00,,0831.8,5.01,0.00,22.7,21.9,00.0,31.7,24.4,03.8,0000.0,0000.33,0000.17,0000.13
2022-01-11 15:56:00,,0831.7,4.99,0.00,22.7,21.9,00.0,31.6,24.4,03.8,0000.0,0000.32,0000.17,0000.13
2022-01-11 15:57:00,,0831.8,4.98,0.00,22.7,21.9,00.0,31.6,24.4,03.9,0000.0,0000.33,0000.18,0000.13
2022-01-11 15:58:00,,0831.8,5.00,0.00,22.7,21.9,00.0,31.7,24.4,04.1,0000.0,0000.30,0000.17,0000.13
2022-01-11 15:59:00,,0831.8,4.98,0.00,22.7,22.0,00.0,31.7,24.4,04.1,0000.0,0000.19,0000.14,0000.12
